Location: Cannifist
(18.2333°N, 63.0167°W)
Time: 17:01:57
(UTC+00:00)

Envisat - Pass Details

Date: 19 June 2021
Orbit: 764 x 766 km, 98.2° (Epoch: 02 August)

Event Time Altitude Azimuth Distance (km) Brightness Sun altitude
Rises 08:12:14 0° 43° (NE) 3,223 7.7 -18.4°
Reaches altitude 10° 08:15:58 10° 72° (ENE) 2,295 6.7 -17.6°
Maximum altitude 08:18:06 13° 97° (E) 2,112 6.0 -17.2°
Drops below altitude 10° 08:20:15 10° 123° (ESE) 2,292 5.8 -16.8°
Sets 08:23:57 0° 151° (SSE) 3,216 6.2 -16.0°
